Boscobel, WI

6:23 AM CST on February 21, 2018 (GMT -0600)
Boscobel

Weather History for KOVS - March, 2014

Change the Weather History Date:

Thursday, March 6, 2014

  Actual Average (KPDC) Record (KPDC)
Temperature  
Mean Temperature 12 °F -  
Max Temperature 28 °F 42 °F 69 °F (2005)
Min Temperature -5 °F 20 °F -4 °F (1960)
Degree Days  
Heating Degree Days 54    
Moisture  
Dew Point 6 °F    
Average Humidity 70    
Maximum Humidity 87    
Minimum Humidity 53    
Precipitation  
Precipitation 0.00 in - - ()
Sea Level Pressure  
Sea Level Pressure 30.27 in    
Wind  
Wind Speed 3 mph (ESE)    
Max Wind Speed 9 mph    
Max Gust Speed -    
Visibility 9 miles    
Events      
Averages and records for this station are not official NWS values.
T = Trace of Precipitation, MM = Missing Value Source: NWS Daily Summary

Daily Weather History Graph

Daily Weather History Graph

Search for Another Location

Airport or City:

Trip Planner

Search our weather history database for the weather conditions in past years. The results will help you decide how hot, cold, wet, or windy it might be!

Date:

Astronomy

Mar. 06, 2014 Rise Set
Actual Time 6:30 AM CST 5:58 PM CST
Civil Twilight 6:01 AM CST 6:26 PM CST
Nautical Twilight 5:29 AM CST 6:59 PM CST
Astronomical Twilight 4:55 AM CST 7:32 PM CST
Moon 9:29 AM CST (3/6) No Moon Set
Length of Visible Light 12h 24m
Length of Day
11h 27m
Waxing Crescent, 32% of the Moon is Illuminated
Mar 6
Waxing Crescent
Mar 8
First Quarter
Mar 16
Full
Mar 23
Last Quarter
Mar 30
New

Hourly Weather History & Observations

Time (CST) Temp. Windchill Dew Point Humidity Pressure Visibility Wind Dir Wind Speed Gust Speed Precip Events Conditions
12:53 AM 5.0 °F -2.1 °F -0.0 °F 80% 30.48 in 10.0 mi ENE 3.5 mph - N/A   Clear
1:53 AM -0.0 °F - -4.0 °F 83% 30.48 in 10.0 mi Calm Calm - N/A   Clear
2:53 AM 1.0 °F -6.7 °F -2.0 °F 87% 30.46 in 10.0 mi East 3.5 mph - N/A   Clear
3:53 AM -0.0 °F -7.9 °F -5.1 °F 79% 30.44 in 10.0 mi East 3.5 mph - N/A   Clear
4:53 AM -0.0 °F - -5.1 °F 79% 30.43 in 10.0 mi Calm Calm - N/A   Clear
5:53 AM -5.1 °F - -9.9 °F 80% 30.43 in 10.0 mi Calm Calm - N/A   Clear
6:53 AM -2.0 °F - -6.0 °F 83% 30.41 in 10.0 mi Calm Calm - N/A   Clear
7:53 AM 5.0 °F -4.1 °F -0.0 °F 80% 30.41 in 10.0 mi NE 4.6 mph - N/A   Overcast
8:53 AM 10.9 °F 4.7 °F 3.9 °F 73% 30.37 in 10.0 mi NNE 3.5 mph - N/A   Overcast
9:53 AM 17.1 °F 10.0 °F 6.1 °F 62% 30.36 in 10.0 mi North 4.6 mph - N/A   Overcast
10:53 AM 21.9 °F 14.5 °F 10.9 °F 63% 30.33 in 10.0 mi Variable 5.8 mph - N/A   Overcast
11:53 AM 24.1 °F 14.4 °F 10.9 °F 57% 30.30 in 10.0 mi South 9.2 mph - N/A   Clear
12:53 PM 25.0 °F 19.3 °F 12.0 °F 58% 30.27 in 10.0 mi Variable 4.6 mph - N/A   Clear
1:53 PM 27.0 °F 20.5 °F 12.0 °F 53% 30.26 in 10.0 mi Variable 5.8 mph - N/A   Clear
2:53 PM 28.0 °F 22.8 °F 12.9 °F 53% 30.21 in 10.0 mi Variable 4.6 mph - N/A   Clear
3:53 PM 28.0 °F 20.0 °F 14.0 °F 56% 30.18 in 10.0 mi South 8.1 mph - N/A   Clear
4:53 PM 28.0 °F 22.8 °F 14.0 °F 56% 30.16 in 10.0 mi Variable 4.6 mph - N/A   Clear
5:53 PM 25.0 °F - 12.9 °F 60% 30.14 in 4.0 mi Calm Calm - N/A   Haze
6:53 PM 21.9 °F - 12.0 °F 66% 30.12 in 10.0 mi Calm Calm - N/A   Clear
7:53 PM 19.9 °F 14.9 °F 12.0 °F 71% 30.10 in 7.0 mi South 3.5 mph - N/A   Clear
8:53 PM 16.0 °F - 10.0 °F 77% 30.09 in 8.0 mi Calm Calm - N/A   Clear
9:53 PM 15.1 °F - 10.0 °F 80% 30.07 in 7.0 mi Calm Calm - N/A   Clear
10:53 PM 21.0 °F 13.4 °F 12.9 °F 71% 30.04 in 8.0 mi SSW 5.8 mph - N/A   Clear
11:53 PM 21.9 °F 13.4 °F 14.0 °F 72% 30.02 in 8.0 mi SSW 6.9 mph - N/A   Clear